Williston, ND

4:30 AM CST on December 09, 2019 (GMT -0600)
Sloulin International

Weather History for KISN - August, 2019

Change the Weather History Date:

Wednesday, August 28, 2019

  Actual Average Record
Temperature  
Mean Temperature 66 °F 65 °F  
Max Temperature 87 °F 80 °F 100 °F (1996)
Min Temperature 44 °F 50 °F 34 °F (1988)
Degree Days  
Heating Degree Days 0 3  
Month to date heating degree days 24 39  
Since 1 June heating degree days 109 183  
Since 1 July heating degree days 39 63  
Cooling Degree Days 1 3  
Month to date cooling degree days 133 157  
Year to date cooling degree days 377 420  
Since 1 June cooling degree days 371 407  
Growing Degree Days 16 (Base 50)    
Moisture  
Dew Point 45 °F    
Average Humidity 57    
Maximum Humidity 92    
Minimum Humidity 21    
Precipitation  
Precipitation 0.00 in 0.04 in 0.68 in (1925)
Month to date precipitation 1.96 1.32  
Year to date precipitation 11.62 10.99  
Sea Level Pressure  
Sea Level Pressure 29.90 in    
Wind  
Wind Speed 10 mph (SW)    
Max Wind Speed 26 mph    
Max Gust Speed 44 mph    
Visibility 10 miles    
Events      
T = Trace of Precipitation, MM = Missing Value Source: NWS Daily Summary

Daily Weather History Graph

Daily Weather History Graph

Search for Another Location

Airport or City:

Astronomy

Aug. 28, 2019 Rise Set
Actual Time 7:06 AM CDT 8:44 PM CDT
Civil Twilight 6:33 AM CDT 9:16 PM CDT
Nautical Twilight 5:53 AM CDT 9:56 PM CDT
Astronomical Twilight 5:10 AM CDT 10:39 PM CDT
Moon 4:26 AM CDT (8/28) 8:09 PM CDT (8/28)
Length of Visible Light 14h 42m
Length of Day
13h 37m
Waning Crescent, 4% of the Moon is Illuminated
Aug 28
Waning Crescent
Aug 30
New
Sep 5
First Quarter
Sep 13
Full
Sep 21
Last Quarter

Hourly Weather History & Observations

Time (CDT) Temp. Windchill Dew Point Humidity Pressure Visibility Wind Dir Wind Speed Gust Speed Precip Events Conditions
12:52 AM 52.0 °F - 46.0 °F 80% 30.01 in 10.0 mi NW 9.2 mph - N/A   Clear
1:52 AM 54.0 °F - 46.0 °F 75% 30.01 in 10.0 mi NW 6.9 mph - N/A   Clear
2:52 AM 46.9 °F - 43.0 °F 86% 30.01 in 10.0 mi SSE 3.5 mph - N/A   Clear
3:52 AM 46.0 °F 43.1 °F 43.0 °F 89% 30.01 in 10.0 mi SW 5.8 mph - N/A   Clear
4:52 AM 45.0 °F 41.2 °F 43.0 °F 93% 30.01 in 10.0 mi SW 6.9 mph - N/A   Clear
5:52 AM 46.0 °F 44.8 °F 43.0 °F 89% 30.01 in 10.0 mi SW 3.5 mph - N/A   Clear
6:52 AM 46.0 °F 44.8 °F 43.0 °F 89% 30.01 in 10.0 mi SW 3.5 mph - N/A   Clear
7:52 AM 48.0 °F - 45.0 °F 89% 30.00 in 10.0 mi SSW 6.9 mph - N/A   Clear
8:52 AM 53.1 °F - 46.9 °F 80% 29.99 in 10.0 mi South 5.8 mph - N/A   Clear
9:52 AM 57.9 °F - 48.0 °F 70% 29.98 in 10.0 mi SSW 6.9 mph - N/A   Clear
10:52 AM 63.0 °F - 48.0 °F 58% 29.95 in 10.0 mi South 8.1 mph - N/A   Clear
11:52 AM 68.0 °F - 48.0 °F 49% 29.92 in 10.0 mi SSW 10.4 mph - N/A   Clear
12:52 PM 73.0 °F - 42.1 °F 33% 29.89 in 10.0 mi SSW 10.4 mph - N/A   Clear
1:52 PM 78.1 °F - 42.1 °F 28% 29.85 in 10.0 mi SSW 10.4 mph - N/A   Clear
2:52 PM 80.1 °F - 44.1 °F 28% 29.83 in 10.0 mi SSW 10.4 mph - N/A   Clear
3:52 PM 82.0 °F - 45.0 °F 27% 29.80 in 10.0 mi South 12.7 mph - N/A   Clear
4:52 PM 82.9 °F - 45.0 °F 26% 29.75 in 10.0 mi South 12.7 mph 19.6 mph N/A   Clear
5:52 PM 86.0 °F - 41.0 °F 20% 29.73 in 10.0 mi West 21.9 mph 32.2 mph N/A   Clear
6:52 PM 84.9 °F - 42.1 °F 22% 29.73 in 10.0 mi West 16.1 mph 26.5 mph N/A   Clear
7:37 PM 73.9 °F - 46.0 °F 37% 29.78 in 10.0 mi North 20.7 mph 43.7 mph N/A   Scattered Clouds
7:52 PM 71.1 °F - 46.9 °F 42% 29.79 in 10.0 mi NNW 21.9 mph 44.9 mph N/A   Clear
8:52 PM 66.0 °F - 46.9 °F 50% 29.82 in 10.0 mi North 11.5 mph - N/A   Scattered Clouds
9:52 PM 63.0 °F - 46.9 °F 56% 29.86 in 10.0 mi North 5.8 mph - N/A   Mostly Cloudy
10:52 PM 57.9 °F - 46.9 °F 67% 29.89 in 10.0 mi WSW 4.6 mph - N/A   Scattered Clouds
11:52 PM 57.9 °F - 46.9 °F 67% 29.89 in 10.0 mi West 10.4 mph - N/A   Clear